Regional Weather Roundup
Issued by NWS Kansas City/Pleasant Hill, MO

Home | Current Version | Previous Version | Graphics & Text | Print | Product List | Glossary Off
Versions: 1 2 3 4 5 6 7 8 9 10 11 12 13 14 15 16 17 18 19 20 21 22 23 24 25 26 27 28 29 30 31 32 33 34 35 36 37 38 39 40 41 42 43 44 45 46 47 48 49 50

000
ASUS43 KEAX 250904
RWREAX

WEATHER ROUNDUP FOR EASTERN KANSAS AND NORTHWEST MISSOURI
NATIONAL WEATHER SERVICE KANSAS CITY/PLEASANT HILL MO
400 AM CDT MON MAY 25 2015

KSZ040-057-103>105-MOZ028-029-037-043-251000-
...KANSAS CITY METROPOLITAN AREA...

CITY           SKY/WX    TMP DP  RH WIND       PRES   REMARKS
K.C. INTL      CLOUDY    61  61 100 SE9       29.83F
K.C. DOWNTOWN  CLOUDY    63  60  90 S3        29.84S
LEES SUMMIT    CLOUDY    62  60  93 S5        29.85F
OLATHE - IXD   CLOUDY    61  60  97 S8        29.87R
OLATHE - OJC   CLOUDY    61  61 100 SW7       29.86R
LAWRENCE       CLOUDY    62  60  93 S8        29.86R

$$

MOZ001>008-011>017-020>025-030>033-038>040-044>046-053-054-251000-
...NORTHERN AND CENTRAL MISSOURI...

CITY           SKY/WX    TMP DP  RH WIND       PRES   REMARKS
ST. JOSEPH     CLOUDY    63  62  97 S6        29.82F
MOSBY          CLOUDY    63  63 100 CALM      29.84F
WARRENSBURG    CLOUDY    61  59  94 S3        29.86S
WHITEMAN AFB   CLOUDY    62  61  97 SW8       29.86S
CLINTON        MOCLDY    63  63 100 S9        29.90R
SEDALIA        CLOUDY    63  61  93 SW7       29.88S
WARSAW         NOT AVBL
CHILLICOTHE      N/A     64  63  96 SW5       29.85R
KIRKSVILLE     CLOUDY    63  63 100 SW6       29.82R

$$

MOZ041-047>049-056>058-063>065-088>090-097-251000-
...EASTERN AND SOUTHERN MISSOURI...

CITY           SKY/WX    TMP DP  RH WIND       PRES   REMARKS
ST. LOUIS INTL CLOUDY    71  65  81 S12G20    29.89R
SPIRIT OF STL  CLOUDY    69  66  90 VRB3      29.87R
COLUMBIA       CLOUDY    65  63  93 SW17      29.85R
JEFFERSON CITY CLOUDY    66  62  87 SW12G21   29.86R
ROLLA          CLOUDY    65  62  90 SW16      29.89R
OSAGE BEACH    CLOUDY    63  61  94 SW9       29.91R
SPRINGFIELD    PTCLDY    62  60  93 S7        29.92S
BRANSON        MOCLDY    61  59  94 CALM      29.96R
JOPLIN         MOCLDY    62  61  96 S8        29.91R
WEST PLAINS    CLOUDY    68  65  90 S6        29.96R

$$

IAZ060-094-KSZ022-034>040-054-083-096-NEZ052-066-093-251000-
...KANSAS...SOUTHEAST NEBRASKA AND IOWA...

CITY           SKY/WX    TMP DP  RH WIND       PRES   REMARKS
TOPEKA         CLOUDY    60  59  96 CALM      29.84R
MANHATTAN      PTCLDY    57  56  96 W3        29.82S
EMPORIA        MOCLDY    59  57  93 S12       29.82S
CHANUTE        CLOUDY    61  60  97 S16       29.87R
WICHITA        MOCLDY    60  58  92 SE14      29.80F
OMAHA          CLOUDY    64  61  90 S7        29.76S
LINCOLN        CLOUDY    60  59  96 CALM      29.77F
LAMONI         LGT RAIN  64  61  90 SW10      29.80S
DES MOINES     DRIZZLE   64  61  90 SW9       29.75F

$$




USA.gov is the U.S. government's official web portal to all federal, state and local government web resources and services.